Location: Caltech
(34.1382°N, 118.1253°W)
Time: 23:17:03
(UTC-07:00)

Gbstr 26 Del rocket - Visible Passes

Search period start: 30 October 2014 00:00
Search period end: 08 November 2014 23:00
Orbit: 493 x 1277 km, 51.8° (Epoch: 29 October)

Date Brightness Start Highest point End Pass type
(mag) Time Alt. Az. Time Alt. Az. Time Alt. Az.
30 Oct 5.9 18:55:39 10° W 18:57:49 14° SW 19:00:07 10° SSW visible
05 Nov 6.8 05:05:23 10° SSE 05:08:38 14° SE 05:11:37 10° E visible
06 Nov 6.5 05:01:21 10° S 05:05:56 20° SE 05:09:58 10° E visible
07 Nov 6.0 04:57:46 10° S 05:03:15 26° SE 05:07:55 10° ENE visible
08 Nov 5.5 04:54:27 10° SSW 05:00:34 35° SE 05:05:40 10° ENE visible
